Weather History for Winner, SD

Change the Weather History Date:

Thursday, January 10, 2013

  Actual Average Record
Temperature  
Mean Temperature 45 °F 25 °F  
Max Temperature 52 °F 36 °F 63 °F (2012)
Min Temperature 38 °F 14 °F -6 °F (2011)
Degree Days  
Heating Degree Days 20 40  
Month to date heating degree days 332 405  
Since 1 July heating degree days 2746 3111  
Cooling Degree Days 0 0  
Month to date cooling degree days 0 0  
Year to date cooling degree days 0 0  
Moisture  
Dew Point 30 °F    
Average Humidity 61    
Maximum Humidity 85    
Minimum Humidity 36    
Precipitation  
Precipitation 0.00 in 0.00 in 0.00 in (2015)
Month to date precipitation T 0.07  
Year to date precipitation T 0.07  
Sea Level Pressure  
Sea Level Pressure 29.73 in    
Wind  
Wind Speed 23 mph (South)    
Max Wind Speed 38 mph    
Max Gust Speed 49 mph    
Visibility 10 miles    
Events      
T = Trace of Precipitation, MM = Missing Value Source: NWS Daily Summary

Daily Weather History Graph

Daily Weather History Graph

Search for Another Location

Airport:

Trip Planner

Search our weather history database for the weather conditions in past years. The results will help you decide how hot, cold, wet, or windy it might be!

Date:

Astronomy

Jan. 10, 2013 Rise Set
Actual Time 8:10 AM CST 5:23 PM CST
Civil Twilight 7:38 AM CST 5:55 PM CST
Nautical Twilight 7:03 AM CST 6:31 PM CST
Astronomical Twilight 6:28 AM CST 7:05 PM CST
Moon 6:52 AM CST (1/10) 4:33 PM CST (1/10)
Length of Visible Light 10h 16m
Length of Day
9h 12m
Waning Crescent, 2% of the Moon is Illuminated
Jan 10
Waning Crescent
Jan 11
New
Jan 18
First Quarter
Jan 26
Full
Feb 3
Last Quarter

Hourly Weather History & Observations

Time (CST) Temp. Windchill Dew Point Humidity Pressure Visibility Wind Dir Wind Speed Gust Speed Precip Events Conditions
12:53 AM 44.1 °F 33.8 °F 27.0 °F 51% 30.02 in 10.0 mi South 31.1 mph 43.7 mph N/A   Clear
1:53 AM 43.0 °F 33.1 °F 27.0 °F 53% 30.02 in 10.0 mi SSW 26.5 mph 33.4 mph N/A   Clear
2:53 AM 44.1 °F 33.8 °F 28.0 °F 53% 29.99 in 10.0 mi SSW 31.1 mph 40.3 mph N/A   Clear
3:53 AM 43.0 °F 32.2 °F 26.1 °F 51% 29.97 in 10.0 mi SSW 32.2 mph 46.0 mph N/A   Clear
4:53 AM 43.0 °F 32.0 °F 25.0 °F 49% 29.95 in 10.0 mi South 33.4 mph 49.5 mph N/A   Clear
5:53 AM 41.0 °F 29.5 °F 24.1 °F 51% 29.95 in 10.0 mi South 32.2 mph 43.7 mph N/A   Clear
6:53 AM 39.0 °F 26.8 °F 24.1 °F 55% 29.94 in 10.0 mi South 32.2 mph 41.4 mph N/A   Clear
7:53 AM 37.9 °F 25.5 °F 24.1 °F 57% 29.91 in 10.0 mi South 31.1 mph 46.0 mph N/A   Clear
8:53 AM 37.9 °F 25.9 °F 24.1 °F 57% 29.90 in 10.0 mi South 28.8 mph 40.3 mph N/A   Clear
9:53 AM 41.0 °F 30.7 °F 23.0 °F 49% 29.87 in 10.0 mi South 25.3 mph 36.8 mph N/A   Clear
10:53 AM 45.0 °F 35.8 °F 21.9 °F 40% 29.82 in 10.0 mi South 26.5 mph 39.1 mph N/A   Clear
11:53 AM 50.0 °F - 24.1 °F 36% 29.78 in 10.0 mi South 32.2 mph 39.1 mph N/A   Clear
12:53 PM 52.0 °F - 30.0 °F 43% 29.74 in 10.0 mi South 19.6 mph 25.3 mph N/A   Clear
1:53 PM 51.1 °F - 32.0 °F 48% 29.70 in 10.0 mi SSE 11.5 mph - N/A   Clear
2:53 PM 48.9 °F - 34.0 °F 56% 29.68 in 10.0 mi South 13.8 mph - N/A   Scattered Clouds
3:53 PM 48.0 °F - 35.1 °F 61% 29.65 in 10.0 mi SSE 9.2 mph - N/A   Partly Cloudy
4:53 PM 45.0 °F 39.3 °F 35.1 °F 68% 29.63 in 10.0 mi SSE 11.5 mph - N/A   Overcast
5:53 PM 43.0 °F 35.4 °F 35.1 °F 74% 29.59 in 10.0 mi South 16.1 mph 21.9 mph N/A   Overcast
6:53 PM 41.0 °F 32.2 °F 35.1 °F 79% 29.58 in 10.0 mi SSE 18.4 mph 25.3 mph N/A   Partly Cloudy
7:53 PM 39.9 °F 31.1 °F 34.0 °F 79% 29.57 in 10.0 mi South 17.3 mph 23.0 mph N/A   Clear
8:42 PM 39.2 °F 31.2 °F 35.6 °F 87% 29.50 in 10.0 mi South 13.8 mph 25.3 mph N/A   Mostly Cloudy
8:53 PM 39.9 °F 31.1 °F 35.1 °F 83% 29.53 in 10.0 mi South 17.3 mph 26.5 mph N/A   Overcast
9:21 PM 39.2 °F 29.8 °F 35.6 °F 87% 29.48 in 10.0 mi South 18.4 mph 27.6 mph N/A   Scattered Clouds
9:53 PM 39.0 °F 28.5 °F 35.1 °F 86% 29.49 in 10.0 mi SSW 23.0 mph 35.7 mph N/A   Clear
10:32 PM 39.2 °F 29.3 °F 35.6 °F 87% 29.46 in 10.0 mi SSW 20.7 mph 28.8 mph N/A   Partly Cloudy
10:53 PM 39.0 °F 29.3 °F 35.1 °F 86% 29.49 in 10.0 mi SSW 19.6 mph 32.2 mph N/A   Partly Cloudy
11:53 PM 37.9 °F 27.3 °F 34.0 °F 86% 29.47 in 10.0 mi SSW 21.9 mph 31.1 mph N/A   Clear